{"data":{"norad_id":65144,"epoch":"2026-05-25T01:34:05.387232Z","epoch_age_seconds":80067,"freshness":"FRESH","line1":"1 65144U 25171N   26145.06534013  .00003586  00000+0  33126-3 0  9995","line2":"2 65144  51.8917 167.8501 0008300 359.1480   0.9474 14.96889437 44384","mean_motion":14.96889437,"eccentricity":0.00083,"inclination_deg":51.8917,"raan_deg":167.8501,"arg_perigee_deg":359.148,"mean_anomaly_deg":0.9474,"bstar":0.00033126,"rev_number":4438,"period_min":96.199489715552,"perigee_km":570.74192490041,"apogee_km":582.28664603429,"semimajor_km":6954.6512854673,"source":"CELESTRAK","updated_at":"2026-05-25T13:38:05.168160Z"}}